Location: Newark
(48.6110°N, 6.2360°E)
Time: 21:36:40
(UTC+00:00)

ISS - Visible Passes

Search period start: 05 December 2019 00:00
Search period end: 15 December 2019 00:00
Orbit: 412 x 421 km, 51.6° (Epoch: 05 December)

Date Brightness Start Highest point End Pass type
(mag) Time Alt. Az. Time Alt. Az. Time Alt. Az.
05 Dec -3.5 16:37:33 10° WNW 16:40:50 52° N 16:43:34 14° E visible
05 Dec -2.1 18:14:20 10° WNW 18:16:28 35° W 18:16:28 35° W visible
06 Dec -3.8 17:25:51 10° WNW 17:29:13 86° SSW 17:30:12 43° ESE visible
07 Dec -3.8 16:37:22 10° WNW 16:40:43 73° NNE 16:44:03 10° ESE visible
07 Dec -1.9 18:14:19 10° W 18:16:59 28° SW 18:16:59 28° SW visible
08 Dec -2.7 17:25:41 10° WNW 17:28:54 43° SSW 17:31:02 18° SSE visible
09 Dec -3.3 16:37:08 10° WNW 16:40:28 64° SSW 16:43:47 10° SE visible
09 Dec -0.8 18:14:58 10° WSW 18:16:41 13° SW 18:18:17 10° SSW visible
10 Dec -1.1 17:25:48 10° W 17:28:22 20° SW 17:30:57 10° S visible
11 Dec -1.7 16:37:01 10° W 16:40:01 30° SW 16:43:00 10° SSE visible
13 Dec -0.5 16:37:27 10° WSW 16:39:20 14° SW 16:41:13 10° S visible
